Time,TemperatureF,DewpointF,PressureIn,WindDirection,WindDirectionDegrees,WindSpeedMPH,WindSpeedGustMPH,Humidity,HourlyPrecipIn,Conditions,Clouds,dailyrainin,SolarRadiationWatts/m^2,SoftwareType,DateUTC
2013-02-22 00:11:00,19.0,-2.0,30.08,WNW,298,3.0,4.0,40,-99.99,,,-99.99,0.000000,,2013-02-22 08:11:00,
2013-02-22 01:11:00,18.0,-1.0,30.08,SW,231,0.0,1.0,42,-99.99,,,-99.99,0.000000,,2013-02-22 09:11:00,
2013-02-22 01:20:00,17.0,-2.0,30.08,SE,128,2.0,4.0,42,-99.99,,,-99.99,0.000000,,2013-02-22 09:20:00,
2013-02-22 02:11:00,17.0,-2.0,30.08,SE,128,2.0,4.0,42,-99.99,,,-99.99,0.000000,,2013-02-22 10:11:00,
2013-02-22 03:11:00,14.0,-4.0,30.10,SSE,154,2.0,4.0,43,-99.99,,,-99.99,0.000000,,2013-02-22 11:11:00,
2013-02-22 03:20:00,16.0,-1.0,30.11,SSE,166,3.0,5.0,47,-99.99,,,-99.99,0.000000,,2013-02-22 11:20:00,
2013-02-22 04:20:00,22.0,8.0,30.10,East,84,3.0,5.0,54,-99.99,,,-99.99,0.000000,,2013-02-22 12:20:00,
2013-02-22 05:11:00,22.0,8.0,30.10,East,84,3.0,5.0,54,-99.99,,,-99.99,0.000000,,2013-02-22 13:11:00,
2013-02-22 06:11:00,17.0,3.0,30.13,NE,52,1.0,3.0,52,-99.99,,,-99.99,0.000000,,2013-02-22 14:11:00,
2013-02-22 07:11:00,17.0,3.0,30.14,East,92,1.0,2.0,55,-99.99,,,-99.99,0.000000,,2013-02-22 15:11:00,
2013-02-22 08:20:00,27.0,8.0,30.19,WSW,256,2.0,4.0,43,-99.99,,,-99.99,249.000000,,2013-02-22 16:20:00,
2013-02-22 09:11:00,27.0,8.0,30.19,WSW,256,2.0,4.0,43,-99.99,,,-99.99,249.000000,,2013-02-22 17:11:00,
2013-02-22 09:20:00,38.0,11.0,30.19,SE,134,0.0,2.0,33,-99.99,,,-99.99,466.000000,,2013-02-22 17:20:00,
2013-02-22 10:12:00,38.0,11.0,30.19,SE,134,0.0,2.0,33,-99.99,,,-99.99,466.000000,,2013-02-22 18:12:00,
2013-02-22 10:20:00,42.0,15.0,30.18,NW,326,2.0,6.0,33,-99.99,,,-99.99,605.000000,,2013-02-22 18:20:00,
2013-02-22 11:11:00,42.0,15.0,30.18,NW,326,2.0,6.0,33,-99.99,,,-99.99,605.000000,,2013-02-22 19:11:00,
2013-02-22 11:20:00,45.0,15.0,30.18,SSW,201,2.0,7.0,30,-99.99,,,-99.99,678.000000,,2013-02-22 19:20:00,
2013-02-22 12:20:00,46.0,15.0,30.16,NNE,19,4.0,8.0,28,-99.99,,,-99.99,645.000000,,2013-02-22 20:20:00,
2013-02-22 13:20:00,50.0,14.0,30.11,SE,124,4.0,8.0,24,-99.99,,,-99.99,709.000000,,2013-02-22 21:20:00,
2013-02-22 14:20:00,49.0,13.0,30.09,North,359,5.0,9.0,23,-99.99,,,-99.99,350.000000,,2013-02-22 22:20:00,
2013-02-22 15:11:00,49.0,13.0,30.09,North,359,5.0,9.0,23,-99.99,,,-99.99,350.000000,,2013-02-22 23:11:00,
2013-02-22 15:20:00,50.0,12.0,30.07,North,9,1.0,6.0,21,-99.99,,,-99.99,326.000000,,2013-02-22 23:20:00,
2013-02-22 16:11:00,50.0,12.0,30.07,North,9,1.0,6.0,21,-99.99,,,-99.99,326.000000,,2013-02-23 00:11:00,
2013-02-22 16:20:00,50.0,11.0,30.04,ESE,106,5.0,7.0,20,-99.99,,,-99.99,79.000000,,2013-02-23 00:20:00,
2013-02-22 17:11:00,50.0,11.0,30.04,ESE,106,5.0,7.0,20,-99.99,,,-99.99,79.000000,,2013-02-23 01:11:00,
2013-02-22 17:20:00,51.0,10.0,30.03,SE,135,7.0,9.0,19,-99.99,,,-99.99,51.000000,,2013-02-23 01:20:00,
2013-02-22 18:11:00,51.0,10.0,30.03,SE,135,7.0,9.0,19,-99.99,,,-99.99,51.000000,,2013-02-23 02:11:00,
2013-02-22 18:20:00,43.0,7.0,30.03,SE,134,3.0,3.0,23,-99.99,,,-99.99,0.000000,,2013-02-23 02:20:00,
2013-02-22 19:11:00,43.0,7.0,30.03,SE,134,3.0,3.0,23,-99.99,,,-99.99,0.000000,,2013-02-23 03:11:00,
2013-02-22 19:20:00,41.0,8.0,30.01,SSE,150,8.0,11.0,25,-99.99,,,-99.99,0.000000,,2013-02-23 03:20:00,
2013-02-22 20:11:00,41.0,8.0,30.01,SSE,150,8.0,11.0,25,-99.99,,,-99.99,0.000000,,2013-02-23 04:11:00,
2013-02-22 20:20:00,42.0,7.0,30.02,SE,128,5.0,7.0,23,-99.99,,,-99.99,0.000000,,2013-02-23 04:20:00,
2013-02-22 21:12:00,42.0,7.0,30.02,SE,128,5.0,7.0,23,-99.99,,,-99.99,0.000000,,2013-02-23 05:12:00,
2013-02-22 21:20:00,41.0,8.0,30.03,ESE,107,3.0,6.0,25,-99.99,,,-99.99,0.000000,,2013-02-23 05:20:00,
2013-02-22 22:11:00,41.0,8.0,30.03,ESE,107,3.0,6.0,25,-99.99,,,-99.99,0.000000,,2013-02-23 06:11:00,
2013-02-22 22:20:00,40.0,9.0,29.98,SSE,160,4.0,6.0,27,-99.99,,,-99.99,0.000000,,2013-02-23 06:20:00,
2013-02-22 23:11:00,40.0,9.0,29.98,SSE,160,4.0,6.0,27,-99.99,,,-99.99,0.000000,,2013-02-23 07:11:00,
2013-02-22 23:20:00,40.0,10.0,29.99,ESE,113,4.0,6.0,29,-99.99,,,-99.99,0.000000,,2013-02-23 07:20:00,